GFSNIL_850_temp_018.txt.gz
Temp
9 8 8 6 6 5 4 4 3 2 3 2 1 1 1 1 0 -0 -0 -1 -1 -1
8 7 6 6 5 4 3 3 2 2 2 1 1 1 0 -1 -0 -1 -1 -2 -1 -3
7 6 5 4 3 3 3 2 1 1 0 0 0 0 -0 -1 -1 -1 -1 -2 -2 -3
5 4 4 3 3 2 2 1 1 0 -0 -0 -0 -0 -0 -1 -1 -1 -1 -2 -3 -3
4 4 4 3 3 2 1 0 0 -0 -1 -0 -0 -1 -1 -2 -2 -1 -2 -3 -4 -4
4 4 4 3 3 2 1 0 -0 -1 -1 -1 -1 -1 -2 -2 -2 -3 -3 -3 -3 -4
5 4 4 3 2 2 1 0 -1 -1 -1 -1 -2 -2 -2 -2 -2 -3 -3 -3 -4 -5
5 4 3 2 2 1 1 0 -1 -1 -1 -1 -2 -2 -3 -3 -3 -3 -4 -4 -5 -5
4 4 3 3 2 1 0 0 -0 -1 -1 -1 -2 -3 -3 -3 -4 -4 -5 -5 -5 -6
4 3 3 1 1 1 1 0 -0 -1 -1 -1 -2 -2 -3 -4 -4 -5 -6 -6 -6 -7
2 2 1 1 1 0 0 -0 -0 -1 -1 -2 -2 -3 -3 -4 -4 -5 -6 -7 -7 -8
2 2 1 0 0 -0 -0 -1 -1 -1 -1 -2 -3 -3 -4 -4 -5 -6 -7 -7 -8 -8
0 1 -0 -0 -1 -1 -1 -2 -2 -2 -2 -3 -3 -4 -4 -5 -5 -6 -7 -8 -8 -9
-0 -1 -1 -2 -2 -2 -3 -2 -2 -2 -3 -3 -4 -5 -5 -5 -6 -7 -7 -8 -8 -9

GFSNIL_850_temp_021.txt.gz
Temp
10 10 9 9 9 8 7 6 5 5 4 3 2 1 1 1 0 -0 -0 -1 -1 -1
9 9 9 9 7 6 6 5 4 3 3 2 2 1 0 -0 -0 -1 -1 -1 -2 -2
8 8 8 7 6 5 5 4 3 3 2 1 1 0 -0 -1 -1 -1 -2 -2 -2 -3
7 7 6 5 4 4 3 3 2 2 0 0 -1 -1 -1 -1 -1 -1 -2 -2 -3 -3
6 5 4 4 4 3 2 2 2 1 0 -0 -1 -1 -1 -1 -2 -2 -2 -2 -3 -3
6 5 4 4 3 3 2 2 1 1 0 -1 -1 -1 -1 -2 -2 -2 -3 -3 -3 -4
5 5 4 4 3 3 2 1 1 1 -0 -1 -1 -1 -1 -2 -2 -2 -3 -3 -4 -4
6 5 4 4 3 3 2 1 1 0 -0 -1 -1 -1 -1 -2 -2 -3 -3 -4 -4 -5
5 5 3 3 2 2 1 1 0 0 -0 -1 -1 -1 -2 -2 -3 -3 -4 -4 -5 -5
5 4 3 2 0 1 1 0 0 -0 -0 -1 -1 -1 -2 -2 -3 -4 -4 -5 -5 -6
4 2 1 -1 -0 1 1 0 -0 -1 -1 -1 -1 -2 -2 -3 -3 -4 -5 -5 -6 -7
2 -0 -1 -0 0 1 -0 -1 -1 -1 -1 -2 -2 -2 -3 -3 -4 -4 -5 -6 -6 -7
-2 -1 0 0 -0 -1 -1 -2 -2 -2 -2 -2 -2 -2 -3 -3 -4 -5 -6 -6 -7 -7
-1 -1 -1 -0 -1 -1 -2 -2 -3 -3 -2 -2 -3 -3 -4 -4 -5 -5 -6 -6 -7 -8

GFSNIL_850_temp_024.txt.gz
Temp
10 10 9 9 8 8 6 6 6 5 4 4 3 2 2 1 0 -0 -0 -1 -1 -1
9 9 9 9 8 7 6 6 5 4 4 4 3 2 1 0 -0 -1 -1 -1 -2 -2
9 9 8 8 7 6 6 5 4 4 3 2 2 1 0 -0 -1 -1 -1 -2 -2 -2
9 9 8 7 6 6 5 4 4 3 2 1 1 1 -0 -1 -1 -1 -2 -2 -2 -3
9 8 8 7 6 5 4 4 3 3 2 1 1 -0 -1 -1 -1 -1 -2 -2 -3 -3
8 8 7 6 5 4 3 3 2 2 1 1 0 -0 -1 -1 -1 -2 -2 -3 -3 -3
8 7 6 5 4 3 3 2 1 1 1 1 -0 -1 -1 -1 -1 -2 -2 -3 -3 -3
7 7 5 4 3 3 2 1 1 1 1 0 -0 -1 -1 -1 -2 -2 -3 -3 -3 -4
7 6 4 4 3 1 1 -0 1 1 1 0 -0 -1 -1 -1 -2 -2 -3 -3 -4 -5
6 5 3 2 1 0 -0 -0 1 1 0 -0 -1 -1 -1 -2 -2 -3 -3 -4 -4 -5
5 3 2 1 0 -0 -1 -1 0 0 -1 -1 -1 -1 -2 -2 -2 -3 -3 -4 -5 -6
2 1 -1 -1 -0 -1 -1 -0 -0 -1 -1 -2 -2 -2 -2 -2 -3 -3 -4 -5 -6 -6
-1 -1 -1 0 -0 -1 -0 -1 -1 -1 -2 -2 -2 -2 -3 -3 -3 -4 -5 -5 -6 -6
-0 -0 0 -1 -1 -1 -1 -2 -1 -2 -2 -3 -3 -3 -3 -3 -4 -4 -5 -5 -6 -6

GFSNIL_850_temp_027.txt.gz
Temp
11 10 10 9 9 8 8 7 6 5 4 4 4 3 3 2 1 -0 -1 -1 -1 -1
11 11 10 9 8 8 7 6 6 4 3 3 3 2 1 1 0 -0 -1 -1 -1 -1
11 10 10 9 8 8 7 6 5 4 3 3 2 2 2 1 -0 -1 -1 -1 -2 -2
10 10 9 8 8 7 6 6 4 4 3 2 2 2 1 0 -1 -1 -1 -1 -2 -2
10 9 9 8 8 7 6 5 4 3 3 2 2 1 1 0 -1 -1 -1 -2 -2 -2
9 9 9 8 8 7 5 4 3 2 2 2 1 1 0 -0 -1 -1 -1 -2 -2 -3
10 9 9 8 7 6 4 3 2 2 1 1 1 0 -0 -1 -1 -1 -2 -2 -3 -3
10 9 8 7 6 4 3 2 1 1 0 1 0 -0 -0 -1 -1 -1 -2 -2 -3 -3
9 7 6 5 4 3 1 0 -0 -0 -0 0 0 -0 -0 -1 -1 -2 -2 -3 -3 -4
7 6 5 3 2 1 -0 -0 -1 0 -1 0 -0 -0 -1 -1 -1 -2 -2 -3 -3 -4
6 5 3 1 0 -1 -1 -1 0 -1 -0 -0 -0 -1 -2 -2 -2 -2 -3 -3 -4 -4
4 2 0 -0 -1 -1 -1 -0 -1 -1 -0 -1 -1 -2 -2 -2 -2 -3 -3 -4 -4 -5
0 -1 -1 -1 -1 -0 -0 -2 -1 -0 -0 -1 -1 -2 -2 -3 -3 -3 -4 -4 -5 -5
-2 -1 -1 -0 -1 -1 -2 -1 -1 -1 -1 -1 -2 -2 -3 -3 -3 -4 -4 -5 -5 -5

GFSNIL_850_temp_030.txt.gz
Temp
11 10 9 9 10 10 10 9 8 7 7 6 6 5 4 4 3 2 0 -0 -1 -1
11 11 10 10 10 9 9 8 7 6 6 6 6 4 4 3 2 1 -0 -1 -1 -2
11 11 11 11 10 9 8 7 7 6 5 4 4 3 3 2 1 -0 -1 -1 -1 -2
12 12 12 10 9 9 8 7 6 6 4 3 3 2 2 1 0 -0 -1 -1 -1 -2
13 12 10 10 9 8 7 6 6 5 3 3 2 2 1 1 0 -0 -1 -1 -2 -2
11 11 10 10 9 8 7 6 5 4 3 2 1 1 1 0 -0 -0 -1 -1 -2 -2
10 10 10 9 8 7 6 5 4 3 2 1 -0 -0 0 0 -0 -1 -1 -1 -2 -2
9 9 9 8 7 6 5 4 3 2 1 -0 -0 -0 0 -0 -0 -1 -1 -1 -2 -3
8 8 8 7 6 5 4 3 1 0 -1 -1 -0 -2 -1 -0 -1 -1 -1 -2 -2 -3
8 7 6 5 4 4 2 1 -0 -1 -1 -1 -1 -2 -1 -1 -1 -1 -2 -2 -2 -3
6 5 4 3 1 0 -0 -1 -2 -1 -1 -1 -2 -1 -1 -1 -2 -2 -2 -2 -3 -3
4 3 2 1 -1 -2 -1 -1 -1 -1 -1 -2 -1 -1 -1 -1 -2 -2 -3 -3 -3 -4
1 0 -1 -1 -1 -1 -1 -1 -1 -2 -2 -1 -1 -1 -1 -2 -3 -3 -3 -3 -4 -4
0 -0 -1 -0 -1 -1 -1 -2 -1 -2 -1 -1 -2 -2 -2 -3 -3 -3 -3 -4 -4 -5

GFSNIL_850_temp_033.txt.gz
Temp
11 11 10 10 10 9 9 9 8 7 7 6 6 6 5 4 4 4 3 2 2 1
12 11 11 10 10 9 9 8 8 7 7 6 5 5 5 4 4 3 2 1 0 -0
12 12 11 10 11 10 9 8 7 7 6 5 5 4 4 4 3 2 1 0 -0 -1
13 13 12 11 11 10 8 7 7 6 5 5 5 5 3 2 2 2 0 -1 -1 -1
13 13 12 12 11 10 8 7 6 5 5 4 3 2 2 1 -0 1 -0 -1 -1 -1
14 13 12 12 11 9 9 7 6 5 5 4 2 1 0 0 -0 -0 -0 -1 -1 -1
13 12 10 9 9 9 7 6 6 5 4 2 1 0 -0 0 -0 -1 -1 -1 -1 -1
10 10 9 9 8 7 6 5 4 4 2 1 0 -1 -0 -1 -1 -1 -0 -1 -1 -1
9 8 8 7 6 5 4 3 3 1 0 -1 -2 -1 -1 -1 -1 -1 -1 -1 -1 -1
7 7 6 6 5 4 3 2 1 -1 -2 -1 -1 -1 -1 -2 -1 -1 -1 -1 -2 -2
6 5 5 4 3 2 1 -0 0 -1 -1 -1 -1 -2 -1 -2 -2 -2 -1 -2 -2 -2
4 4 3 2 1 0 -0 -0 -1 -1 -1 -1 -1 -2 -2 -2 -2 -2 -1 -2 -2 -3
2 2 1 1 0 -0 -1 -1 -1 -1 -1 -1 -2 -2 -2 -2 -2 -2 -2 -2 -3 -3
-0 -0 -1 -1 -1 -1 -1 -1 -1 -1 -1 -2 -2 -2 -2 -3 -3 -3 -3 -3 -3 -3